Lapse_Rate
7.2 7.2 7.2 7.3 7.7 7.5 7.5 8.0 7.5 7.5 7.2 8.2 7.8 7.4 7.6 7.8 7.1 6.1 6.6 6.1 6.1 6.1 6.3 6.3 6.3 6.2 6.3 6.4 6.5 6.5 6.4 6.4 6.4 6.3 6.1 5.9 5.7 5.6 5.6 5.7 5.7 5.6 5.6 5.7 5.7 5.7 5.6 5.6 5.5
7.3 7.3 7.4 7.4 7.9 8.2 8.1 8.7 8.4 8.3 7.8 7.7 7.8 7.0 6.8 7.4 7.2 6.9 7.3 6.8 6.5 6.6 6.4 6.4 6.5 6.3 6.2 6.2 6.3 6.4 6.4 6.3 6.2 6.3 6.3 6.2 6.0 5.9 5.7 5.7 5.8 5.8 5.8 5.8 5.8 5.9 5.8 5.8 5.8
7.2 7.2 7.3 7.4 7.8 8.2 9.0 9.3 9.0 8.1 8.0 7.7 8.0 7.8 6.9 7.1 7.2 7.2 7.3 7.0 6.9 6.8 6.7 6.7 6.6 6.6 6.5 6.4 6.4 6.4 6.5 6.5 6.3 6.3 6.3 6.2 6.1 6.0 6.0 5.9 5.9 5.8 5.8 5.9 5.9 5.9 5.9 5.9 5.9
7.3 7.4 7.3 7.5 8.2 9.1 9.3 9.4 9.3 8.8 8.3 8.4 8.5 7.9 5.9 6.2 5.7 7.5 7.8 7.5 7.4 7.2 6.9 7.0 6.8 6.7 6.6 6.7 6.6 6.5 6.6 6.5 6.4 6.4 6.2 6.2 6.1 6.2 6.1 6.0 6.0 5.9 5.9 5.9 6.0 6.1 6.1 6.0 6.0
7.2 7.4 7.4 7.5 8.0 9.4 9.6 9.5 9.7 8.8 8.5 8.8 8.2 7.1 6.1 6.1 6.0 6.6 7.8 7.9 7.5 7.4 7.1 6.9 6.9 6.8 6.7 6.8 6.8 6.7 6.5 6.5 6.3 6.3 6.3 6.3 6.4 6.3 6.3 6.3 6.2 6.1 6.0 6.0 6.0 5.9 5.9 6.0 6.0
7.3 7.2 7.2 7.6 7.8 9.0 9.5 9.2 9.2 9.1 8.9 8.1 8.0 7.7 6.5 5.0 5.2 6.1 6.8 7.7 7.2 7.1 7.0 6.9 6.9 6.9 6.9 7.0 6.9 6.9 6.7 6.5 6.4 6.3 6.2 6.1 6.1 6.1 6.0 6.1 6.1 6.1 6.0 5.9 6.0 6.0 5.9 5.9 5.9
7.1 7.1 7.2 7.4 8.1 9.2 9.5 9.0 9.4 9.3 8.6 8.1 7.9 8.3 6.9 6.6 6.1 6.2 5.9 6.0 5.5 6.2 6.6 6.8 6.9 6.8 6.9 6.8 6.8 6.8 6.8 6.7 6.6 6.4 6.4 6.2 5.9 5.9 6.1 6.0 5.9 5.9 5.9 5.8 6.0 6.0 6.1 5.9 5.7
7.1 6.9 7.2 7.6 8.6 9.3 9.5 9.5 9.2 9.1 8.9 8.3 8.2 7.7 6.9 7.3 6.5 6.2 6.2 6.8 6.6 6.8 6.6 6.4 6.5 6.6 6.7 6.6 6.5 6.6 6.7 6.7 6.7 6.6 6.6 6.4 6.2 6.2 6.0 5.9 5.8 5.7 5.8 5.8 5.6 5.5 5.5 5.6 5.6
7.1 6.9 7.1 8.0 8.5 9.4 9.6 9.3 9.2 8.8 8.9 8.5 8.3 7.8 7.8 6.3 6.2 6.8 6.4 5.9 6.3 6.6 6.6 6.6 6.7 6.3 6.4 6.5 6.5 6.4 6.5 6.4 6.4 6.4 6.4 6.3 6.3 6.2 6.0 6.0 5.9 6.0 5.9 5.9 5.7 5.5 5.6 5.6 5.5
7.0 7.0 7.4 8.1 8.7 9.3 9.5 9.1 9.0 8.8 8.5 8.3 7.9 6.9 6.8 6.6 6.3 6.4 6.1 6.0 6.3 6.6 6.5 7.1 6.8 6.9 6.4 6.0 6.1 6.3 6.3 6.4 6.7 6.7 6.5 6.3 6.1 6.0 6.0 6.0 6.2 6.1 6.0 5.9 5.7 5.4 5.7 5.9 5.8
7.2 7.2 7.9 8.0 8.5 9.3 9.4 9.2 9.3 9.3 8.7 8.2 7.3 6.6 6.2 6.4 6.8 6.4 6.7 6.6 7.6 7.0 7.3 6.0 6.2 6.4 6.5 6.3 5.9 6.1 5.6 5.4 6.1 6.3 6.6 6.5 6.5 6.5 6.5 6.2 6.0 6.3 6.1 5.8 5.9 5.6 5.6 5.5 5.5
7.3 7.6 7.9 8.4 8.6 9.3 9.0 9.0 9.1 9.2 8.5 7.6 7.6 7.4 6.7 7.2 7.7 7.7 8.0 7.9 7.7 7.6 7.8 7.1 7.1 7.0 6.6 6.7 6.3 6.4 6.1 6.3 6.8 7.3 5.8 5.5 5.4 6.3 6.1 5.8 5.5 5.7 5.8 5.8 5.6 5.6 5.6 5.5 5.8
7.7 7.9 8.2 8.3 8.9 9.1 8.9 8.2 8.9 8.3 8.3 7.5 7.6 7.4 7.2 7.6 8.0 8.1 8.2 8.2 7.9 7.3 7.3 7.3 7.3 7.3 6.4 5.6 6.5 6.4 6.3 6.4 6.8 6.4 5.9 4.7 5.3 5.5 5.5 5.2 5.3 5.7 5.7 5.7 5.7 6.1 6.0 5.9 5.9
7.8 8.1 8.1 8.1 8.6 8.6 9.4 9.3 9.5 8.3 8.4 8.3 8.1 8.0 8.2 7.8 7.9 7.8 7.8 7.9 8.1 7.9 7.5 7.2 7.0 6.6 6.2 6.7 6.2 6.3 6.3 6.1 5.9 5.8 5.6 4.8 4.5 4.6 4.8 4.9 5.3 5.8 6.0 5.7 5.6 5.9 6.3 6.2 6.4
7.9 7.9 8.1 8.3 8.5 8.4 8.8 9.5 9.6 9.0 8.6 8.4 8.1 7.9 7.8 7.6 7.5 7.9 7.9 8.2 8.2 7.7 7.7 7.5 7.3 7.2 7.0 6.6 6.5 5.7 6.0 6.1 6.2 6.6 5.8 5.5 4.8 4.8 5.3 5.1 5.2 5.0 5.9 6.3 6.2 6.3 6.4 6.5 6.7
8.1 8.4 8.5 8.4 8.7 8.9 9.0 9.1 9.1 7.9 9.0 8.5 8.2 8.1 7.9 8.0 8.0 8.2 8.1 8.1 8.2 8.2 7.9 7.8 7.6 7.1 7.0 6.8 6.5 6.3 6.1 6.2 6.5 6.2 6.2 6.2 5.0 5.1 5.0 5.0 5.5 5.8 6.2 6.4 6.6 7.4 7.4 6.9 6.7
8.3 8.3 8.7 9.1 9.1 9.1 9.2 8.8 8.4 7.9 8.3 8.5 8.4 8.3 8.3 8.1 8.0 8.1 8.0 7.9 8.0 8.4 7.9 7.5 7.6 7.3 7.2 7.1 7.2 6.9 6.6 6.2 6.5 7.0 7.0 6.1 5.6 5.3 5.7 5.9 6.2 6.4 6.6 7.0 6.8 6.8 6.9 6.3 6.3
8.9 8.9 9.4 9.5 9.3 9.2 9.2 8.4 7.7 7.6 7.9 8.1 8.0 7.9 8.1 8.1 8.1 8.3 8.0 7.9 8.0 8.0 7.8 7.5 7.1 7.3 7.3 7.3 7.2 7.1 7.0 6.8 6.9 7.5 6.7 6.3 5.9 6.1 6.6 6.8 6.9 6.7 6.6 6.4 6.2 6.2 6.6 6.7 6.8
8.9 9.1 9.3 9.7 9.5 9.3 8.9 8.7 8.5 8.0 8.0 7.8 7.7 7.7 8.0 8.3 8.5 8.4 8.4 8.1 7.8 7.9 7.8 7.7 7.4 7.3 7.2 7.3 7.3 7.3 7.2 7.4 6.9 6.8 6.6 6.2 5.8 5.9 6.1 6.0 6.3 6.4 6.7 7.0 6.8 6.6 6.4 6.4 6.2
8.6 8.9 9.1 9.5 9.6 9.5 9.4 9.1 8.7 8.4 8.2 7.9 7.8 8.2 8.4 8.4 8.2 8.3 8.1 8.1 7.8 7.4 7.4 7.6 7.6 7.5 7.3 7.2 6.8 6.9 6.9 6.7 6.3 6.1 6.0 5.8 6.0 6.2 6.2 6.1 6.0 6.4 6.8 6.7 6.9 6.8 6.8 6.7 6.8
8.9 8.8 9.0 9.1 9.5 9.5 9.4 8.8 8.7 8.1 7.4 7.2 7.6 7.7 7.9 8.3 8.5 8.4 8.2 7.6 7.6 7.5 7.3 7.4 7.7 7.6 7.4 7.2 6.9 6.6 6.4 6.3 5.9 5.7 5.9 6.0 6.2 6.4 6.4 6.4 6.4 6.4 6.4 6.8 6.9 6.9 6.7 6.6 6.6
8.9 8.8 8.8 8.9 8.9 9.1 9.4 8.9 7.3 7.4 6.9 7.5 8.0 7.8 7.8 8.0 7.8 8.0 8.2 7.8 7.8 7.5 7.4 7.4 7.4 7.6 7.7 7.4 7.0 6.8 6.7 6.3 6.1 6.0 6.0 6.3 6.5 6.5 6.4 6.7 6.7 6.9 7.0 6.6 6.7 6.4 6.3 5.9 5.7
8.1 8.2 8.2 8.3 8.5 8.7 9.0 9.2 6.7 7.5 7.6 8.0 7.8 7.6 7.4 7.9 7.7 7.7 7.3 7.4 7.2 7.5 7.4 7.4 7.2 7.0 7.0 6.9 6.9 6.8 6.8 6.6 6.3 6.3 6.6 6.6 6.6 6.6 6.6 6.8 6.5 6.5 6.4 6.5 6.5 6.3 5.9 5.8 5.7
8.4 8.5 8.5 8.8 8.9 8.6 9.0 9.4 7.1 7.6 7.7 6.9 7.2 7.0 7.5 7.4 7.2 7.3 6.6 6.5 6.6 6.7 6.7 6.9 6.9 7.0 6.9 6.9 6.9 6.9 6.8 6.8 6.6 6.6 6.6 7.0 6.8 6.8 6.2 6.0 6.1 6.1 6.2 6.3 6.1 5.9 5.8 5.6 5.5
8.4 8.5 8.4 7.7 7.8 7.7 9.3 8.9 8.0 7.5 7.0 6.8 6.9 7.5 7.6 6.9 6.6 6.9 6.2 6.1 6.3 6.5 6.5 6.6 6.8 6.9 7.0 7.0 7.0 7.1 7.0 7.0 6.8 6.6 6.4 6.3 6.6 6.2 6.1 6.2 6.0 6.1 6.1 6.0 5.9 5.8 5.5 5.4 5.4
8.9 8.8 8.5 7.8 7.2 8.3 9.3 7.5 6.8 7.1 7.4 6.5 6.9 7.4 7.0 6.3 6.3 6.1 6.4 6.2 6.1 6.7 6.8 6.7 6.7 6.7 6.8 6.9 6.8 6.9 6.8 6.7 6.5 6.5 6.5 6.3 6.0 6.0 6.2 6.1 6.0 6.0 5.8 5.8 5.8 5.5 5.4 5.3 5.2
8.3 8.5 8.7 8.5 8.5 8.5 7.7 7.0 6.8 7.4 7.4 7.1 7.2 7.2 6.3 5.8 5.9 5.7 5.7 6.6 6.8 7.0 6.8 6.6 6.5 6.5 6.4 6.3 6.3 6.2 6.2 6.1 6.1 6.0 5.9 6.0 6.1 5.9 5.9 5.7 5.7 5.6 5.6 5.4 5.2 5.2 5.4 5.5 5.6
8.4 8.5 8.6 9.0 7.7 8.1 8.2 7.7 7.3 7.3 7.1 7.3 6.8 6.9 7.0 6.4 5.5 5.0 4.7 5.5 6.6 6.9 6.4 6.0 5.8 5.9 6.0 5.9 5.8 5.9 5.9 5.8 5.7 5.7 5.7 5.6 5.6 5.6 5.5 5.5 5.5 5.3 5.3 5.3 5.5 5.4 5.1 4.7 4.5
8.5 8.5 8.4 8.5 8.5 7.5 7.1 7.7 7.5 7.2 7.0 6.9 6.5 6.4 5.9 5.4 4.9 4.8 5.0 5.7 6.5 6.3 5.6 5.5 5.5 5.6 5.8 5.6 5.5 5.5 5.6 5.5 5.7 5.6 5.7 5.7 5.8 5.7 5.7 5.6 5.4 5.3 5.4 5.2 5.0 4.8 4.3 4.1 4.3
8.6 8.8 8.6 8.3 8.1 8.4 8.4 7.5 7.7 7.5 6.9 6.4 5.7 5.3 5.4 5.8 5.7 5.7 5.6 6.1 6.2 5.6 5.6 5.6 5.6 5.6 5.5 5.4 5.4 5.5 5.5 5.4 5.5 5.4 5.3 5.5 5.5 5.5 5.5 5.5 5.5 5.4 5.3 5.2 5.3 5.2 5.1 4.3 4.2
Wind_Speed
5 8 4 1 3 4 2 6 8 7 6 2 4 12 7 4 2 5 8 18 20 15 18 19 20 18 17 16 17 16 15 14 15 15 14 13 11 13 11 11 12 10 9 9 8 8 7 6 5
5 4 3 3 2 2 5 6 13 18 13 8 2 14 12 6 6 7 13 16 18 14 15 16 21 20 17 16 15 15 15 14 14 14 13 13 12 11 9 8 9 9 9 8 7 7 6 5 3
5 5 1 4 3 5 5 11 8 7 10 10 4 18 11 5 8 7 16 16 19 14 16 17 18 19 17 15 15 15 15 14 13 12 12 12 12 11 9 8 7 7 7 6 6 5 4 3 2
4 2 4 1 9 18 3 7 7 4 7 8 2 11 18 29 29 10 18 18 17 12 15 18 18 17 15 15 14 13 12 11 11 12 11 11 10 10 9 8 7 5 5 3 3 3 2 1 1
3 2 3 5 14 11 5 5 8 6 2 21 19 15 10 31 34 6 16 17 16 11 13 15 17 17 16 14 12 11 10 10 10 9 9 9 9 9 9 8 7 5 4 4 3 3 2 3 4
4 2 5 7 12 8 6 8 6 4 16 16 17 15 9 14 23 29 10 16 16 14 12 14 15 15 14 13 11 10 9 7 7 7 7 7 7 8 8 8 7 6 5 4 4 4 4 5 6
4 3 8 11 19 9 5 1 7 13 16 11 8 8 5 9 7 18 20 14 14 15 13 12 12 13 13 12 10 9 8 8 7 7 8 9 9 10 11 10 10 10 10 8 7 6 6 6 9
3 1 10 14 11 12 7 10 11 11 6 7 5 6 6 2 7 4 19 17 18 9 6 7 15 14 12 11 11 8 7 6 6 8 10 11 13 14 13 13 14 14 14 13 11 10 9 8 8
6 3 7 17 14 2 8 10 9 10 11 7 6 10 13 12 9 8 21 22 15 12 10 16 10 4 11 11 9 9 6 4 6 8 11 13 13 13 14 16 18 18 17 15 13 11 7 7 8
4 2 11 17 12 7 3 7 13 9 14 11 7 10 19 14 8 15 17 15 14 13 8 3 7 12 14 2 10 8 6 6 7 10 13 13 14 14 17 21 23 21 19 16 13 12 9 5 5
9 8 16 19 10 9 5 10 5 7 11 15 23 17 14 10 4 14 5 11 12 9 5 4 6 8 10 5 3 9 7 5 5 9 15 14 12 14 14 12 13 11 15 10 11 9 8 9 10
6 13 13 15 10 6 4 5 10 8 10 26 27 23 15 7 7 8 8 8 7 2 6 8 5 6 4 7 6 4 3 17 19 18 29 15 7 7 5 5 6 6 6 5 3 7 7 9 9
7 11 9 8 8 9 6 5 9 28 29 24 21 21 16 17 14 12 8 9 6 6 3 5 7 3 7 5 9 8 11 16 28 21 34 33 13 3 3 4 1 5 8 8 4 5 3 4 4
6 6 3 6 10 5 5 1 8 23 27 25 25 21 20 20 17 15 13 9 11 9 9 9 9 8 7 7 5 5 6 8 14 21 17 25 33 14 10 6 6 5 3 5 4 3 4 4 4
7 6 7 7 7 1 0 5 14 25 28 25 24 20 19 17 17 15 12 12 12 7 6 11 6 9 6 0 3 4 7 13 8 9 22 21 9 20 15 9 5 4 6 5 2 2 4 4 5
3 5 5 11 8 4 10 4 12 22 27 23 22 18 17 16 14 13 11 9 10 11 12 13 12 7 4 5 5 5 2 5 6 4 12 17 9 11 16 7 5 3 2 1 2 1 2 2 3
5 8 9 11 12 6 9 8 20 20 23 19 16 16 16 14 13 11 12 11 11 12 12 12 12 12 8 6 5 6 6 2 3 9 6 1 12 7 7 3 6 12 4 4 3 0 2 2 2
5 6 7 8 6 7 12 10 10 17 23 17 15 15 15 14 11 10 11 11 11 11 12 9 10 12 9 7 5 4 2 5 13 11 7 9 10 10 10 8 6 8 6 6 4 2 1 2 3
6 7 9 5 9 10 13 9 8 17 19 18 15 13 13 12 9 8 9 7 7 9 11 11 11 11 9 8 6 4 5 7 8 7 19 18 16 18 10 5 5 5 4 5 6 4 3 3 3
8 7 9 4 7 7 11 8 9 13 11 17 16 13 12 8 8 8 8 7 8 7 8 7 8 9 8 7 6 4 4 4 4 9 15 18 20 19 16 10 10 11 9 11 10 9 4 3 3
5 5 7 6 3 1 10 4 12 12 17 16 14 13 10 8 8 6 7 7 7 7 7 6 7 6 7 8 7 7 5 6 8 9 10 12 19 18 19 18 11 10 8 7 6 8 10 6 4
2 8 9 6 5 2 5 4 6 11 13 13 13 11 11 9 7 7 7 7 8 7 7 7 7 7 7 8 6 8 6 5 5 8 9 11 20 20 20 19 17 12 9 11 9 8 5 6 7
5 9 7 6 8 6 10 5 2 8 9 12 10 11 8 8 8 7 8 8 8 7 7 7 7 7 7 8 9 8 9 7 7 9 12 13 13 18 20 20 15 9 8 9 9 11 10 4 4
6 4 6 5 2 3 10 4 5 5 8 8 10 10 9 8 7 8 7 8 7 8 8 8 8 8 9 10 10 11 10 10 8 7 7 8 8 8 13 16 12 10 7 8 8 7 8 9 7
5 4 3 4 3 6 6 7 1 10 11 13 12 11 9 8 8 8 7 6 8 9 8 9 9 8 9 12 13 12 10 8 7 6 5 6 6 7 10 9 10 9 10 9 8 9 7 6 6
6 2 3 3 3 4 6 3 2 4 9 7 12 9 7 7 6 7 7 7 8 9 9 9 8 8 10 9 8 6 7 4 4 5 5 5 4 5 7 8 10 11 12 10 8 7 5 6 5
6 4 3 2 5 5 5 3 3 6 9 12 10 9 7 3 6 6 6 8 8 10 10 9 9 8 8 7 7 7 7 7 5 7 5 4 6 5 6 8 7 8 7 7 8 6 6 5 5
8 5 5 4 2 3 2 3 6 7 7 7 8 7 7 6 4 3 7 10 10 9 8 9 8 7 6 7 7 7 6 6 5 5 6 6 7 7 8 7 6 6 7 6 8 8 8 8 5
5 4 4 3 2 1 2 2 6 13 11 11 10 9 8 5 6 9 8 11 11 10 9 8 7 7 8 9 6 7 6 8 6 6 7 6 7 7 7 8 7 6 7 7 7 7 8 8 7
4 4 1 5 5 1 3 3 4 13 12 11 10 11 8 9 8 10 12 11 10 8 8 7 7 7 8 6 7 7 8 6 6 6 8 7 8 9 6 9 7 8 9 8 9 9 8 9 9
Wind_Direction
262 208 165 335 46 97 229 222 130 192 248 289 25 89 108 121 182 151 119 119 113 115 120 109 106 104 107 109 117 120 118 116 117 119 121 117 116 112 105 104 109 109 110 113 112 108 102 97 91
293 294 146 267 136 179 251 232 193 214 217 287 84 88 70 27 51 87 114 114 114 113 105 110 112 111 112 114 114 116 119 120 122 125 128 129 128 122 119 115 115 121 122 120 115 112 109 106 98
274 188 83 188 177 233 217 227 242 227 245 291 52 78 40 29 38 67 112 117 105 101 105 111 108 110 116 116 118 122 126 127 129 132 133 137 138 140 140 133 130 129 127 125 123 119 118 126 135
290 23 312 165 271 287 202 226 243 38 322 51 29 41 7 346 342 113 115 105 92 95 102 107 105 104 105 108 111 113 120 126 130 135 139 143 146 150 154 152 151 151 145 140 133 136 150 250 284
284 269 288 299 286 260 265 157 107 124 233 51 56 53 65 339 339 45 106 98 98 85 78 87 95 99 99 101 106 115 124 129 134 138 144 149 153 161 166 168 170 175 183 175 180 192 221 252 274
321 48 335 299 300 311 343 87 94 98 48 42 75 83 60 345 339 359 101 108 107 100 94 88 91 94 101 109 113 116 121 126 132 143 152 159 168 175 180 182 185 190 200 209 213 225 244 262 269
238 320 274 295 295 299 284 121 113 76 72 47 119 95 160 121 322 347 44 53 93 112 113 103 101 108 109 111 110 115 126 138 151 164 169 178 187 193 194 197 201 199 197 207 210 223 240 260 279
256 69 298 282 297 319 4 22 110 91 83 103 95 133 182 260 26 324 55 49 54 59 73 123 135 130 123 123 125 131 138 148 172 187 192 198 202 205 203 205 211 210 207 207 213 219 235 259 288
289 339 274 273 285 325 7 76 59 107 115 83 125 170 150 157 131 101 65 51 46 46 47 53 37 117 131 138 138 130 138 175 221 234 227 218 219 217 214 215 217 219 215 213 219 227 241 272 300
191 209 255 264 280 323 329 23 119 121 101 86 102 105 123 133 128 78 80 75 46 36 15 60 67 62 25 138 148 152 176 205 235 254 252 251 247 236 222 221 218 220 215 214 221 225 226 251 274
243 223 256 273 278 306 3 14 43 134 122 158 138 145 167 166 136 98 118 123 127 173 160 295 116 103 118 77 2 64 92 285 336 262 259 252 251 260 238 245 233 215 213 213 222 224 208 116 118
210 241 242 265 284 349 2 29 355 45 45 137 141 148 162 159 75 43 12 28 50 358 35 341 57 29 98 90 105 161 123 41 347 329 346 283 245 258 241 246 222 198 244 204 224 163 166 146 157
232 248 252 267 294 304 85 61 78 83 93 122 106 102 84 68 62 53 54 45 31 19 329 330 19 338 35 51 57 43 52 64 46 26 6 347 290 303 329 293 269 179 194 211 196 171 188 172 174
249 279 285 331 301 309 44 87 87 96 99 89 85 79 69 62 51 48 31 26 360 344 353 3 350 338 344 76 98 132 155 137 99 90 70 13 350 355 355 335 321 323 264 154 131 161 158 176 177
301 355 343 299 275 208 238 51 66 110 95 92 87 83 75 67 59 52 37 28 4 341 31 21 312 7 85 91 159 155 89 84 103 95 114 96 344 354 341 305 316 322 15 359 325 197 151 155 195
327 321 260 257 235 153 95 66 92 105 99 98 95 90 83 80 79 72 55 37 17 28 32 29 18 28 58 322 357 52 105 148 149 172 83 90 198 226 265 272 258 256 314 322 342 64 97 154 142
273 236 231 271 170 148 119 111 79 99 97 98 99 99 92 83 73 72 66 53 40 31 33 26 14 11 7 7 357 9 336 327 155 71 20 269 194 227 233 298 344 344 314 353 319 307 165 221 224
277 254 317 137 184 136 90 85 82 111 105 101 94 94 93 94 91 81 70 61 54 34 29 21 16 16 4 7 344 313 17 24 36 64 64 34 10 21 35 347 342 354 360 349 359 6 301 213 229
16 352 335 86 141 106 119 117 100 122 112 111 100 92 89 92 101 97 91 77 58 48 43 26 26 6 12 16 4 355 6 27 19 28 33 27 15 5 346 352 340 345 2 341 351 326 340 324 353
3 332 308 337 138 122 139 136 103 76 94 112 113 111 112 104 92 89 98 85 71 53 47 35 28 18 9 25 5 7 1 26 8 19 31 6 12 14 11 22 21 19 8 13 10 10 334 322 2
280 253 283 274 340 248 107 107 111 97 96 96 93 100 94 115 118 111 100 102 101 87 63 48 36 15 25 19 8 14 1 9 10 10 2 2 13 7 24 21 13 8 7 15 353 7 7 340 338
270 354 11 355 33 239 139 242 115 127 112 113 123 109 110 102 91 88 93 85 97 91 78 68 55 45 35 20 19 27 30 6 348 8 3 7 8 7 30 20 19 12 4 5 358 348 357 358 340
111 28 356 340 335 35 314 79 218 138 133 135 123 114 111 108 105 98 86 89 76 78 67 48 40 27 28 30 34 36 23 17 4 18 8 1 353 359 3 8 6 9 354 350 347 344 338 323 333
19 5 339 326 290 318 255 245 216 180 180 163 122 126 114 109 104 75 70 84 79 67 63 46 32 22 31 37 34 40 31 23 17 8 0 355 349 356 350 351 357 345 337 337 326 318 329 321 311
19 12 322 334 349 225 251 109 232 220 135 131 133 118 112 113 103 102 67 76 75 73 61 47 37 25 24 30 34 28 24 13 2 357 348 326 345 340 338 344 346 340 334 328 328 327 314 310 315
338 151 170 257 272 263 12 54 342 40 131 129 101 101 88 90 107 100 94 74 72 70 62 53 38 33 31 35 20 14 7 359 342 347 344 337 325 322 325 332 328 324 318 322 316 307 290 297 304
299 328 242 13 320 21 120 138 29 73 71 89 99 105 121 131 116 147 123 86 69 71 58 46 38 35 33 21 7 356 353 351 343 333 325 314 308 308 315 309 301 300 313 325 316 296 292 305 298
158 248 15 355 350 306 164 158 177 158 148 137 122 138 179 186 186 154 106 84 69 62 61 43 31 33 25 358 3 349 334 331 334 335 332 325 317 318 326 314 320 323 330 328 335 357 3 0 352
4 356 357 108 104 186 351 278 185 164 173 165 172 182 179 190 150 109 93 82 74 62 48 35 26 13 25 16 12 355 341 357 353 349 335 326 326 329 337 333 332 331 332 340 336 349 350 354 7
47 314 49 109 324 23 142 307 55 142 170 162 156 133 126 97 87 95 86 76 68 62 46 36 6 18 27 14 1 349 350 346 359 347 343 335 343 346 344 357 358 0 0 17 1 349 351 34 33